Dewpoint
27 27 27 26 24 24 25 25 26 26 26 26 26 27 26 29 30 29 29 30 30 31 31 31 31 32 33 34 34 35 36 37 36 39 42 45 48 50 55 62 62 61 58
27 27 27 25 24 24 24 25 26 25 26 26 27 26 26 29 29 29 29 29 30 29 30 30 30 31 31 32 34 34 35 36 37 36 39 43 45 47 51 61 61 61 61
25 26 26 25 24 24 24 25 25 25 25 26 26 26 27 28 28 28 28 29 29 29 29 29 29 30 30 31 32 33 34 35 37 37 38 42 43 47 49 60 61 61 61
24 24 25 24 24 24 24 24 24 25 25 25 25 26 27 27 27 27 28 28 28 28 28 28 29 29 30 30 31 32 34 35 37 38 39 40 44 47 49 57 58 60 60
23 23 24 23 23 23 24 24 24 24 24 25 24 25 26 26 28 27 28 27 27 27 27 27 28 28 29 30 32 32 32 33 34 36 37 38 41 42 42 43 56 57 58
23 22 22 22 21 22 23 23 22 22 23 23 24 24 24 25 26 26 26 27 27 26 25 27 26 27 28 29 31 34 32 31 31 33 35 35 37 39 39 40 44 55 55
22 20 20 20 19 20 21 21 21 20 22 22 22 23 23 24 25 24 25 25 27 26 25 26 26 26 27 28 29 31 32 32 31 33 33 34 34 36 37 38 41 48 54
20 17 19 19 18 19 19 20 20 18 19 19 20 21 22 22 25 24 25 25 25 25 25 25 26 25 26 27 27 29 30 31 32 32 33 34 35 36 36 37 38 41 48
17 18 18 19 17 18 18 20 19 17 17 18 18 19 19 20 23 23 24 23 24 24 24 24 24 25 24 25 26 26 28 30 32 31 31 32 34 34 35 38 38 42 50
18 18 18 18 18 18 19 20 18 17 17 17 17 19 18 18 21 21 22 23 23 23 24 24 23 23 23 23 25 25 24 28 30 32 29 30 32 33 34 35 35 35 40
19 19 18 18 18 18 19 19 18 19 18 18 16 19 17 19 19 20 20 20 22 22 22 23 22 21 23 23 24 24 25 27 29 30 30 29 29 31 32 34 36 36 35
19 19 19 19 18 18 18 19 19 19 18 17 16 17 17 18 20 19 19 19 18 20 20 20 20 19 21 22 23 23 24 26 27 27 28 28 28 30 32 33 34 36 36
19 20 21 22 20 19 18 18 20 19 18 16 16 17 16 17 18 19 18 17 16 18 18 18 18 18 19 21 22 23 25 25 26 26 26 27 30 31 31 32 33 34 35
19 20 20 20 21 19 19 18 18 18 18 16 18 17 18 16 17 17 17 17 16 16 18 19 19 18 18 19 19 21 22 24 25 25 26 27 29 30 30 31 31 32 32
18 19 20 20 19 19 17 16 17 18 19 17 18 18 17 17 17 17 16 16 15 16 17 18 19 19 18 17 17 19 19 20 22 24 25 25 26 27 28 30 30 30 31
18 19 19 18 19 19 16 20 19 19 19 18 18 16 17 16 16 16 15 14 13 14 15 16 16 16 14 13 14 14 15 15 16 18 22 22 23 25 26 27 27 28 29
17 18 18 18 17 18 16 16 18 20 17 15 15 15 14 14 15 15 13 12 11 11 12 13 14 14 12 12 12 13 13 14 15 15 17 19 21 23 24 24 25 26 27
19 20 18 18 19 18 18 20 20 20 20 20 16 13 13 13 13 14 13 12 11 10 9 10 11 11 11 12 13 13 14 14 15 15 16 17 20 20 22 22 23 24 25
22 22 23 23 22 22 21 20 20 19 18 17 15 15 11 13 14 13 14 12 10 9 9 9 10 11 11 12 14 15 15 15 15 16 17 18 21 17 17 19 21 22 23
25 24 25 24 22 21 20 19 18 18 17 16 14 12 13 15 15 14 13 15 12 11 10 10 10 11 12 12 13 14 14 14 14 14 16 18 20 16 16 16 17 18 18
29 25 24 22 21 20 20 19 18 18 17 15 15 11 13 11 11 10 10 13 11 11 12 12 12 12 11 12 12 13 13 15 13 14 14 15 17 15 15 15 15 15 15
29 25 23 22 21 21 20 18 18 17 15 15 14 12 13 14 12 11 12 15 14 11 10 13 12 11 12 13 12 14 12 13 13 14 14 14 14 14 15 14 14 14 14
28 26 23 22 21 21 20 19 18 18 17 16 14 14 15 15 14 14 14 15 13 14 13 13 13 12 12 14 13 12 12 12 12 13 14 14 13 13 14 13 12 13 13
28 27 25 24 24 21 21 22 19 17 16 19 20 18 16 16 17 15 15 15 15 15 15 14 13 11 11 13 13 12 11 12 12 12 14 14 13 12 13 12 12 12 12
30 28 27 26 27 25 25 22 21 19 19 20 21 20 17 17 16 17 16 14 12 14 13 13 12 12 11 12 12 12 11 11 11 11 14 12 12 12 12 11 11 11 11
30 29 28 28 28 29 27 26 24 23 22 22 22 21 19 17 16 17 16 14 12 12 12 12 12 11 11 12 11 11 10 10 10 10 14 12 11 11 11 11 11 11 10
Wind_Speed
10 11 14 15 15 15 17 18 19 18 19 19 19 20 21 23 23 20 19 18 18 18 18 18 19 21 18 17 15 12 11 10 8 9 11 11 8 15 18 22 22 20 23
9 11 13 15 15 15 16 17 18 18 18 19 19 21 21 24 23 22 20 20 19 20 20 20 21 19 21 20 15 16 13 11 10 12 7 6 6 16 16 26 22 20 21
8 10 13 15 15 15 16 16 17 18 19 18 18 20 22 24 24 22 21 19 18 19 21 20 22 23 22 20 19 16 13 11 8 7 10 8 5 10 21 11 24 21 19
8 11 13 14 14 14 15 15 16 17 18 18 18 19 20 23 25 22 21 21 20 19 20 20 21 24 24 21 18 18 16 13 9 6 6 8 8 8 16 12 20 13 17
9 11 12 12 12 13 14 15 15 15 16 17 17 19 20 22 23 24 21 19 20 21 21 22 21 25 27 22 18 17 17 15 12 10 10 11 8 10 14 15 8 17 17
9 11 11 11 12 13 13 14 14 15 15 17 18 18 20 20 30 26 23 19 20 20 21 22 22 25 27 24 20 15 16 16 14 10 10 11 12 11 13 15 13 11 16
8 10 10 11 12 13 13 14 14 15 15 16 17 18 19 23 30 29 22 18 18 20 21 23 23 22 28 23 21 17 16 19 18 14 13 12 12 16 15 14 14 8 4
8 9 10 11 12 13 13 13 14 14 14 14 17 18 17 20 30 31 23 18 17 18 19 22 23 24 28 26 21 20 18 19 19 16 15 13 12 14 13 13 12 11 11
8 9 10 11 12 13 14 13 13 14 14 14 15 17 19 20 29 31 24 19 19 19 19 20 25 24 30 30 22 21 20 20 15 19 18 17 16 18 18 11 10 6 2
7 7 8 9 11 13 14 13 12 12 13 12 13 15 16 19 26 29 28 19 19 19 18 20 26 25 29 30 24 22 21 21 21 18 21 20 19 19 19 16 12 6 4
5 6 7 9 10 11 12 12 12 12 12 13 13 14 16 17 21 26 27 20 19 18 19 19 21 27 26 29 26 23 21 17 19 19 18 19 20 20 18 17 14 8 8
5 5 6 8 8 9 11 11 12 12 13 13 14 13 14 16 19 22 24 22 22 17 19 18 19 25 23 27 25 26 25 19 18 19 20 22 22 22 20 17 15 12 11
5 4 4 5 7 8 10 11 11 12 12 13 14 14 15 15 16 19 20 21 20 15 15 18 22 22 21 21 25 25 23 22 21 22 21 21 20 17 18 20 19 17 12
6 4 3 6 5 7 8 9 11 12 12 13 13 14 14 15 17 18 17 17 17 16 16 17 18 18 19 19 21 22 21 20 21 21 20 19 19 20 20 20 19 20 12
7 5 4 3 4 5 9 10 9 12 12 11 12 11 13 15 17 16 16 16 15 13 13 15 18 20 21 22 21 20 21 21 22 21 21 21 22 21 21 19 19 17 16
8 6 4 4 4 4 4 5 10 10 10 12 12 13 10 14 17 16 13 17 16 14 15 18 19 20 21 22 22 23 23 23 22 21 19 20 21 21 21 20 21 19 18
8 7 6 4 4 4 3 3 3 4 7 10 11 12 13 14 18 18 13 10 17 13 16 17 17 18 19 20 20 21 22 22 21 21 21 20 20 19 20 20 20 20 19
8 3 6 5 5 4 4 3 3 4 4 5 7 10 12 14 16 18 17 10 14 16 16 16 16 17 17 19 19 19 20 20 21 21 21 22 21 19 20 21 20 21 19
9 8 6 5 5 5 4 3 3 3 4 4 4 5 8 8 11 14 16 14 15 15 15 15 14 14 15 15 16 17 17 19 19 19 20 20 20 21 20 20 20 20 20
10 9 8 7 7 6 4 4 3 3 3 4 6 8 8 8 11 13 13 13 13 13 13 13 14 14 14 15 15 16 17 18 19 20 20 19 19 19 19 20 20 19 20
11 12 9 7 7 6 5 4 4 3 2 3 4 5 6 6 8 9 10 11 11 12 12 12 12 12 13 13 14 15 16 16 17 18 18 18 17 19 19 19 20 20 20
12 12 12 9 8 7 6 5 5 4 3 2 3 3 2 4 5 6 7 8 8 9 9 10 10 11 11 12 12 13 14 15 16 17 16 17 17 17 17 18 19 20 20
13 13 12 10 8 7 7 6 5 5 4 3 2 2 1 3 3 4 5 5 6 7 7 8 8 9 9 9 10 11 12 13 13 14 14 16 16 18 17 17 17 18 19
14 14 13 10 10 10 9 8 7 6 6 6 5 4 4 3 2 1 2 2 3 4 5 5 5 6 7 8 9 9 10 11 12 11 12 13 14 15 14 14 16 17 18
14 14 13 12 12 12 10 10 9 9 9 8 7 6 6 5 5 3 2 1 1 1 2 3 4 4 5 5 7 8 10 11 11 12 10 11 13 13 13 13 16 15 17
15 15 15 14 14 13 13 13 12 12 12 10 10 9 7 7 6 5 4 3 3 2 1 0 2 3 4 4 5 7 8 9 10 11 10 10 12 12 13 13 15 13 15
Wind_Direction
9 5 2 2 1 1 6 4 3 4 4 6 2 359 1 3 0 3 6 9 11 14 10 7 6 360 360 358 356 358 356 353 326 317 328 319 324 304 349 182 188 177 192
16 4 5 5 3 7 10 7 6 7 9 9 4 3 2 6 5 3 6 10 13 13 11 13 9 5 2 359 354 358 351 340 332 314 317 330 313 333 316 188 186 181 189
14 6 8 9 8 11 11 9 9 9 10 15 9 4 2 8 7 5 4 10 12 18 15 14 9 6 4 359 354 1 346 338 331 325 315 344 314 334 321 210 185 184 184
15 9 11 11 14 12 11 12 11 13 12 16 10 8 7 11 10 6 4 7 10 17 15 11 14 9 4 1 357 356 352 346 343 322 311 309 308 330 291 246 189 167 175
17 15 13 14 18 14 13 14 13 17 20 17 12 13 12 15 11 7 1 9 13 14 16 11 13 10 6 5 4 3 358 3 360 346 357 5 354 358 358 331 231 185 186
24 17 13 16 18 18 13 13 13 13 21 22 18 14 16 15 10 12 3 10 14 17 15 10 9 10 4 2 7 6 23 14 5 360 4 358 356 355 345 340 311 167 185
27 20 16 18 18 17 15 14 13 15 15 21 27 17 17 17 10 13 0 17 14 15 16 10 11 10 9 3 5 11 33 19 10 3 9 357 351 351 342 330 337 332 87
36 29 22 18 19 17 19 19 14 14 16 18 19 24 19 20 9 13 354 25 19 18 19 20 12 13 12 4 11 14 20 20 13 12 17 4 5 359 344 311 302 310 313
46 38 29 22 21 19 19 19 17 13 18 20 19 22 17 21 13 15 5 15 17 19 19 23 17 16 13 11 20 16 18 13 11 17 18 18 13 13 1 357 10 345 299
59 48 39 34 27 24 18 18 21 20 18 21 26 27 30 17 21 17 10 18 16 17 19 15 21 17 19 22 23 19 16 4 4 14 14 15 14 15 14 23 6 4 311
88 67 48 40 30 26 24 23 20 21 24 20 27 31 29 34 21 16 19 18 6 17 18 14 15 13 21 24 24 24 11 6 13 20 18 18 18 17 11 8 8 12 13
110 83 58 44 35 25 28 27 22 26 24 24 23 27 27 23 32 16 17 21 12 21 16 11 9 14 19 26 24 20 19 19 23 24 21 19 14 8 4 7 6 20 31
130 95 70 59 39 31 28 29 25 21 25 25 22 20 20 22 17 15 14 16 23 21 16 12 11 17 16 24 20 23 22 18 20 22 19 15 8 358 3 12 15 9 18
144 119 85 63 38 43 37 32 36 23 18 25 21 21 13 18 16 12 11 10 14 19 17 22 16 17 23 23 22 23 23 21 19 18 15 11 9 12 15 14 14 7 13
152 137 118 83 66 70 61 32 37 47 28 17 18 21 16 14 10 12 16 15 14 4 20 29 26 22 21 19 19 22 22 19 19 17 15 12 11 12 16 17 17 12 21
159 156 129 116 99 84 77 103 73 61 47 39 34 29 24 25 13 14 19 25 17 9 37 33 30 26 24 20 17 16 19 19 15 16 18 17 10 11 10 14 19 19 13
168 155 142 153 125 109 90 71 68 113 91 53 32 34 33 22 20 18 13 31 30 34 43 37 32 26 23 23 21 19 17 14 11 16 18 17 10 10 13 11 13 13 10
166 136 153 145 133 132 109 88 66 49 34 24 49 24 24 20 21 21 11 28 36 37 40 36 31 27 24 21 20 19 17 14 14 13 15 15 10 13 12 10 11 8 4
167 171 161 153 147 135 136 123 98 73 50 39 29 28 26 15 24 29 25 35 34 34 31 34 31 28 25 23 21 18 18 17 15 13 16 13 7 11 10 10 7 4 4
174 163 166 167 158 167 164 153 130 93 66 48 36 21 8 22 26 27 31 29 30 30 27 30 27 26 25 23 22 19 18 17 17 16 15 11 8 9 8 8 8 4 4
173 172 181 179 179 179 174 170 154 133 109 81 69 43 8 19 29 31 31 28 26 25 23 22 26 26 23 22 21 20 21 18 16 13 11 10 9 8 6 7 7 7 5
176 176 184 188 183 181 182 175 170 160 152 139 111 94 333 46 41 39 39 33 24 23 19 18 21 24 23 20 18 17 17 15 12 10 6 7 8 9 7 9 7 5 3
181 182 186 188 187 173 182 186 182 181 177 168 156 143 100 71 53 42 41 31 29 25 24 20 19 14 18 20 17 16 15 10 3 4 359 3 5 4 5 7 5 6 4
186 188 190 188 187 188 191 194 196 193 193 188 192 191 186 169 150 104 54 44 30 26 22 24 22 17 7 6 13 11 14 1 352 358 351 1 4 3 3 4 1 2 1
189 191 192 191 190 196 192 199 199 199 202 203 203 204 197 198 193 184 179 168 51 17 25 360 6 3 8 357 360 358 356 351 351 347 350 2 3 4 3 2 359 356 0
191 193 193 195 194 194 196 198 202 204 206 206 207 205 205 208 206 199 201 207 209 208 260 307 345 335 335 337 357 346 342 346 350 349 340 2 3 3 359 358 357 355 357